CW2857 Weather Reports


time (UTC)temp
F
wind
direction
speed
knots
gust
knots
rain 1hr
in
rain 24hr
in
rain mn
in
humidity
%
barometer
mb
20260506050528 61 133 7.0 13.0 0.00 0.04 0.01 45 1008.9
20260506045027 62 138 7.8 20.0 0.00 0.04 0.01 44 1008.8
20260506044528 62 144 7.8 16.5 0.00 0.04 0.01 44 1008.8
20260506044029 62 151 10.4 20.0 0.00 0.04 0.01 44 1008.8
20260506043528 62 126 12.2 18.2 0.00 0.04 0.01 43 1008.8
20260506043027 62 130 8.7 17.4 0.00 0.04 0.01 42 1008.7
20260506042527 62 113 3.5 7.8 0.00 0.04 0.01 43 1008.6
20260506042027 63 38 1.7 7.0 0.00 0.04 0.01 42 1008.7
20260506041531 63 80 2.6 6.1 0.00 0.04 0.01 41 1008.4
20260506041027 64 161 0.9 6.1 0.00 0.04 0.01 40 1008.0
20260506040526 64 173 4.3 8.7 0.00 0.04 0.01 40 1007.9
20260506040028 65 168 4.3 9.6 0.00 0.04 0.01 40 1007.8
20260506035527 65 159 3.5 9.6 0.00 0.04 0.01 39 1007.9
20260506035026 65 146 3.5 10.4 0.00 0.04 0.01 39 1007.8
20260506034525 65 146 6.1 10.4 0.00 0.04 0.01 39 1007.9
20260506034026 65 115 3.5 9.6 0.00 0.04 0.01 39 1007.8
20260506033528 65 159 5.2 13.0 0.00 0.04 0.01 39 1007.7
20260506033024 65 138 8.7 13.0 0.00 0.04 0.01 38 1007.7
20260506032524 65 137 6.1 12.2 0.00 0.04 0.01 38 1007.6
20260506032024 65 104 7.0 12.2 0.00 0.04 0.01 38 1007.5
20260506031529 65 134 7.0 13.0 0.00 0.04 0.01 38 1007.4
20260506031028 65 103 7.0 15.6 0.00 0.04 0.01 38 1007.3
20260506030525 65 111 7.8 15.6 0.00 0.04 0.01 37 1007.3
20260506030024 66 111 8.7 13.9 0.00 0.04 0.01 37 1007.3
20260506025527 66 119 7.8 13.9 0.00 0.05 0.01 37 1007.2
20260506025023 66 146 7.0 13.9 0.00 0.05 0.01 37 1007.2
20260506024535 66 124 8.7 13.9 0.00 0.05 0.01 36 1007.1
20260506024022 66 134 8.7 15.6 0.00 0.05 0.01 36 1007.0
20260506023524 67 148 8.7 15.6 0.00 0.05 0.01 35 1007.0
20260506023022 67 139 8.7 16.5 0.00 0.05 0.01 34 1007.0
20260506022525 67 130 9.6 16.5 0.00 0.05 0.01 34 1006.9
20260506022021 68 127 7.0 13.9 0.00 0.05 0.01 34 1007.1
20260506021522 69 85 2.6 12.2 0.00 0.05 0.01 33 1007.3
20260506021020 69 138 4.3 12.2 0.00 0.05 0.01 32 1007.3
20260506020521 69 98 5.2 10.4 0.00 0.05 0.01 32 1007.0
20260506020120 70 159 6.1 10.4 0.00 0.05 0.01 32 1006.9
20260506015520 71 88 5.2 8.7 0.00 0.05 0.01 31 1006.8
20260506015021 70 82 4.3 12.2 0.00 0.05 0.01 31 1006.9
20260506014522 70 103 7.0 12.2 0.00 0.05 0.01 31 1006.8
20260506014018 71 133 5.2 12.2 0.00 0.05 0.01 30 1006.8
20260506013519 71 107 5.2 11.3 0.00 0.05 0.01 30 1006.9
20260506013019 71 136 6.1 13.0 0.00 0.05 0.01 30 1006.9
20260506012518 71 112 6.1 12.2 0.00 0.05 0.01 29 1006.8
20260506012021 72 163 6.1 12.2 0.00 0.05 0.01 29 1006.8
20260506011539 73 92 5.2 10.4 0.00 0.05 0.01 27 1006.8
20260506011017 73 101 0.9 7.8 0.00 0.05 0.01 26 1006.9
20260506010517 73 205 2.6 7.8 0.00 0.05 0.01 26 1006.8
20260506010018 75 119 3.5 7.0 0.00 0.05 0.01 24 1006.7
20260506005517 77 97 2.6 5.2 0.00 0.12 0.01 23 1006.9
20260506005016 76 57 0.9 3.5 0.00 0.12 0.01 24 1007.0
20260506004517 76 28 1.7 5.2 0.00 0.12 0.01 24 1007.1
20260506004014 76 191 1.7 5.2 0.00 0.12 0.01 24 1007.2
20260506003515 76 360 1.7 5.2 0.00 0.12 0.01 24 1007.2
20260506003017 76 40 0.9 5.2 0.00 0.12 0.01 24 1007.2
20260506002518 75 83 0.9 7.0 0.00 0.12 0.01 25 1007.3
20260506002016 75 55 3.5 7.0 0.00 0.12 0.01 25 1007.3
20260506001514 76 74 2.6 6.1 0.00 0.12 0.01 24 1007.4
20260506001014 75 47 0.9 5.2 0.00 0.12 0.01 25 1007.5
20260506000519 75 106 1.7 5.2 0.00 0.12 0.01 25 1007.4
20260506000018 75 128 1.7 4.3 0.00 0.12 0.01 25 1007.5
20260505235513 75 40 0.9 5.2 0.00 0.14 0.01 26 1007.5
20260505235013 74 86 2.6 5.2 0.00 0.14 0.01 26 1007.6
20260505234531 74 41 2.6 6.1 0.00 0.14 0.01 26 1007.7
20260505234011 73 79 1.7 7.8 0.00 0.14 0.01 28 1007.7
20260505233511 72 69 1.7 8.7 0.00 0.14 0.01 28 1007.8
20260505233012 71 196 2.6 8.7 0.00 0.14 0.01 28 1007.8
20260505232513 73 200 2.6 5.2 0.00 0.14 0.01 27 1008.0
20260505232010 75 96 1.7 5.2 0.00 0.14 0.01 26 1008.0
20260505231511 73 351 0.9 7.0 0.00 0.14 0.01 28 1008.1
20260505231010 73 115 1.7 7.0 0.00 0.14 0.01 27 1008.1
20260505230510 72 94 2.6 6.1 0.00 0.14 0.01 27 1008.2
20260505230011 73 210 2.6 5.2 0.00 0.14 0.01 27 1008.2
20260505225513 74 163 0.0 5.2 0.00 0.14 0.01 26 1008.3
20260505225010 75 5 3.5 7.0 0.00 0.14 0.01 26 1008.4
20260505224509 76 92 1.7 6.1 0.00 0.14 0.01 26 1008.3
20260505224008 75 90 0.9 4.3 0.00 0.14 0.01 27 1008.3
20260505223509 73 37 0.9 4.3 0.00 0.14 0.01 27 1008.3
20260505223013 72 28 0.9 6.1 0.00 0.14 0.01 28 1008.6
20260505222512 74 118 4.3 7.0 0.00 0.14 0.01 26 1008.6
20260505222007 75 59 0.9 7.0 0.00 0.14 0.01 27 1008.8
20260505221508 76 76 1.7 4.3 0.00 0.14 0.01 25 1008.8
20260505221007 76 5 0.9 7.0 0.00 0.14 0.01 26 1008.9
20260505220505 76 9 2.6 7.0 0.00 0.14 0.01 27 1009.0
20260505220004 75 350 1.7 7.8 0.00 0.14 0.01 28 1009.1
20260505215503 74 38 1.7 7.8 0.00 0.14 0.01 28 1009.2
20260505215002 72 360 1.7 3.5 0.00 0.14 0.01 31 1009.2
20260505214602 72 132 0.9 7.0 0.00 0.14 0.01 31 1009.3
20260505214002 72 128 2.6 7.0 0.00 0.14 0.01 30 1009.4
20260505213503 69 71 0.9 7.8 0.00 0.14 0.01 34 1009.4
20260505213001 67 165 3.5 7.8 0.00 0.14 0.01 37 1009.4
20260505212603 68 162 5.2 7.8 0.00 0.14 0.01 34 1009.4
20260505212003 67 202 3.5 7.8 0.00 0.14 0.01 35 1009.4
20260505211601 68 193 0.9 6.1 0.00 0.14 0.01 35 1009.5
20260505211100 66 150 1.7 7.8 0.00 0.14 0.01 37 1009.5
20260505210559 66 168 4.3 9.6 0.00 0.14 0.01 36 1009.6
20260505210100 68 157 5.2 9.6 0.00 0.14 0.01 34 1009.6
20260505205600 69 5 0.9 8.7 0.00 0.14 0.01 34 1009.7
20260505205100 72 167 1.7 7.0 0.00 0.14 0.01 31 1009.8
20260505204601 71 115 1.7 7.8 0.00 0.14 0.01 32 1009.8
20260505204056 70 49 3.5 7.8 0.00 0.14 0.01 34 1009.8
20260505203555 69 27 2.6 6.1 0.00 0.14 0.01 35 1009.8
20260505203101 68 51 2.6 8.7 0.00 0.14 0.01 37 1009.9
20260505202554 68 80 3.5 8.7 0.00 0.14 0.01 37 1010.0
20260505202054 66 81 1.7 3.5 0.00 0.14 0.01 40 1010.0
20260505201554 65 36 1.7 6.1 0.00 0.14 0.01 41 1010.0
20260505201054 66 182 1.7 6.1 0.00 0.14 0.01 40 1010.0
20260505200554 68 187 2.6 5.2 0.00 0.14 0.01 37 1010.0
20260505200053 69 5 3.5 5.2 0.00 0.14 0.01 37 1010.1
20260505195551 67 86 1.7 8.7 0.00 0.14 0.01 40 1010.1
20260505195050 66 60 2.6 8.7 0.00 0.14 0.01 42 1010.2
20260505194605 65 82 3.5 7.0 0.00 0.14 0.01 43 1010.3
20260505194049 65 101 2.6 7.0 0.00 0.14 0.01 44 1010.3
20260505193548 65 88 3.5 6.1 0.00 0.14 0.01 44 1010.3
20260505193048 63 355 0.9 7.8 0.00 0.14 0.01 47 1010.4
20260505192547 63 65 0.9 7.8 0.00 0.14 0.01 48 1010.3
20260505192047 63 98 2.6 6.1 0.00 0.14 0.01 48 1010.5
20260505191556 62 171 2.6 4.3 0.00 0.14 0.01 48 1010.4
20260505191048 61 82 0.0 5.2 0.00 0.14 0.01 49 1010.3
20260505190548 61 190 0.9 5.2 0.00 0.14 0.01 48 1010.3
20260505190046 61 144 1.7 6.1 0.00 0.14 0.01 47 1010.4
20260505185545 62 247 1.7 4.3 0.00 0.14 0.01 48 1010.3
20260505185045 62 236 1.7 4.3 0.00 0.14 0.01 47 1010.3
20260505184545 62 355 1.7 4.3 0.00 0.14 0.01 48 1010.3
20260505184045 62 324 0.9 3.5 0.00 0.14 0.01 49 1010.3
20260505183546 63 258 0.9 4.3 0.00 0.14 0.01 46 1010.3
20260505183043 65 150 0.9 7.8 0.00 0.14 0.01 44 1010.3
20260505182543 63 350 1.7 7.8 0.00 0.14 0.01 49 1010.3
20260505182044 61 338 0.0 2.6 0.00 0.14 0.01 54 1010.3
20260505181540 58 15 0.0 4.3 0.00 0.14 0.01 56 1010.3
20260505181040 58 194 0.9 7.0 0.00 0.14 0.01 56 1010.4
20260505180539 58 333 2.6 7.0 0.00 0.14 0.01 57 1010.3
20260505180046 58 219 2.6 6.1 0.00 0.14 0.01 58 1010.2
20260505175536 57 229 1.7 5.2 0.00 0.14 0.01 59 1010.2
20260505175035 57 248 2.6 6.1 0.00 0.14 0.01 60 1010.2
20260505174534 56 205 1.7 4.3 0.00 0.14 0.01 61 1010.1
20260505174034 56 236 1.7 5.2 0.00 0.14 0.01 62 1010.1
20260505173534 56 266 2.6 5.2 0.00 0.14 0.01 62 1010.2
20260505173032 55 229 2.6 5.2 0.00 0.14 0.01 62 1010.2
20260505172533 56 252 1.7 6.1 0.00 0.14 0.01 62 1010.1
20260505172032 56 251 1.7 7.0 0.00 0.14 0.01 62 1010.0
20260505171531 55 200 1.7 7.0 0.00 0.14 0.01 63 1010.0
20260505171031 55 211 4.3 7.0 0.00 0.14 0.01 62 1010.0
20260505170530 55 234 1.7 7.8 0.00 0.14 0.01 63 1010.0
20260505170029 55 227 3.5 7.8 0.00 0.14 0.01 63 1009.9
20260505165528 54 198 3.5 9.6 0.00 0.14 0.01 64 1009.9
20260505165028 54 241 5.2 9.6 0.00 0.14 0.01 64 1009.9
20260505164528 54 282 5.2 10.4 0.00 0.14 0.01 64 1009.9
20260505164027 54 244 6.1 10.4 0.00 0.14 0.01 64 1009.8
20260505163525 54 232 5.2 9.6 0.00 0.14 0.01 64 1009.8
20260505163025 54 270 4.3 7.8 0.00 0.14 0.01 64 1009.8
20260505162525 54 207 3.5 8.7 0.00 0.14 0.01 65 1009.6
20260505162024 54 248 2.6 8.7 0.00 0.14 0.01 65 1009.6
20260505161526 54 237 4.3 9.6 0.00 0.14 0.01 65 1009.6
20260505161023 54 245 3.5 8.7 0.00 0.14 0.01 66 1009.6
20260505160524 53 244 4.3 8.7 0.00 0.14 0.01 65 1009.6
20260505153015 51 257 3.5 6.1 0.00 0.14 0.01 71 1009.2
20260505152513 51 267 2.6 6.1 0.00 0.14 0.01 72 1009.1
20260505152015 51 254 2.6 4.3 0.00 0.14 0.01 71 1009.2
20260505151514 50 233 2.6 7.0 0.00 0.14 0.01 71 1009.2
20260505151011 50 222 2.6 7.0 0.00 0.14 0.01 71 1009.2
20260505150512 50 251 1.7 4.3 0.00 0.14 0.01 72 1009.1
20260505140504 49 211 2.6 6.1 0.00 0.14 0.01 73 1008.4
20260505130104 48 197 3.5 9.6 0.01 0.14 0.01 72 1007.5
20260505124559 48 236 5.2 9.6 0.01 0.14 0.01 72 1007.3
20260505124057 48 237 3.5 9.6 0.01 0.14 0.01 72 1007.2
20260505123558 48 234 4.3 9.6 0.01 0.14 0.01 72 1007.2
20260505123101 48 200 6.1 8.7 0.01 0.14 0.01 73 1007.1
20260505122554 48 208 3.5 7.8 0.00 0.13 0.00 73 1007.1
20260505122054 48 199 4.3 7.8 0.00 0.13 0.00 73 1007.1
20260505121623 48 191 4.3 11.3 0.00 0.13 0.00 72 1007.0
20260505121054 48 209 7.0 11.3 0.00 0.13 0.00 72 1007.0
20260505120553 48 266 6.1 10.4 0.00 0.13 0.00 71 1006.9
20260505120053 48 227 4.3 9.6 0.00 0.13 0.00 71 1006.9
20260505115552 48 244 6.1 12.2 0.00 0.13 0.00 71 1006.9
20260505115052 48 234 6.1 13.9 0.00 0.13 0.00 70 1006.8
20260505114553 49 248 6.1 13.9 0.00 0.13 0.00 70 1006.8
20260505114052 48 242 7.0 13.9 0.00 0.13 0.00 70 1006.8
20260505113551 49 252 6.1 13.0 0.00 0.13 0.00 70 1007.0
20260505113056 49 237 7.0 13.0 0.00 0.13 0.00 70 1007.0
20260505112550 49 252 4.3 13.9 0.00 0.13 0.00 70 1006.9
20260505112051 49 355 7.0 13.9 0.00 0.13 0.00 70 1006.8
20260505111553 48 246 6.1 9.6 0.00 0.13 0.00 70 1006.9
20260505111055 48 355 5.2 9.6 0.00 0.13 0.00 70 1006.9
20260505110554 48 259 5.2 10.4 0.00 0.13 0.00 71 1006.9
20260505102047 48 249 6.1 13.9 0.00 0.13 0.00 70 1006.7
20260505101546 48 241 5.2 12.2 0.00 0.13 0.00 70 1006.6
20260505101047 48 231 7.8 12.2 0.00 0.13 0.00 71 1006.7
20260505100549 48 240 5.2 12.2 0.00 0.13 0.00 70 1006.7
20260505100115 48 258 7.8 13.0 0.00 0.13 0.00 70 1006.8
20260505095549 48 236 6.1 13.0 0.00 0.13 0.00 70 1006.8
20260505095048 48 238 5.2 9.6 0.00 0.13 0.00 70 1006.9
20260505094545 48 281 5.2 13.0 0.00 0.13 0.00 70 1006.8
20260505094044 48 238 6.1 13.9 0.00 0.13 0.00 70 1006.8
20260505093544 49 280 7.8 13.9 0.00 0.13 0.00 70 1006.8
20260505093044 49 235 7.8 10.4 0.00 0.13 0.00 69 1006.9
20260505092550 49 222 7.0 13.9 0.00 0.13 0.00 69 1006.9
20260505092044 49 229 7.0 13.9 0.00 0.13 0.00 69 1007.0
20260505091606 49 183 8.7 13.9 0.00 0.13 0.00 69 1006.9
20260505091043 49 267 7.8 16.5 0.00 0.13 0.00 69 1007.0
20260505090543 49 245 8.7 16.5 0.00 0.13 0.00 70 1006.9
20260505090056 49 237 7.0 12.2 0.00 0.13 0.00 70 1006.9
20260505085542 50 250 6.1 18.2 0.00 0.13 0.00 69 1007.0
20260505085044 50 229 5.2 18.2 0.00 0.13 0.00 69 1007.1
20260505084545 50 198 7.8 16.5 0.00 0.13 0.00 65 1007.0
20260505084044 50 264 8.7 17.4 0.00 0.13 0.00 70 1007.0
20260505083542 50 254 7.8 20.9 0.00 0.13 0.00 70 1006.8
20260505083048 50 239 9.6 17.4 0.00 0.13 0.00 70 1006.6
20260505082539 50 244 11.3 16.5 0.00 0.13 0.00 72 1006.6
20260505082039 50 243 8.7 13.9 0.00 0.13 0.00 73 1006.6
20260505081543 49 223 8.7 13.0 0.00 0.13 0.00 73 1006.4
20260505081042 49 205 7.0 13.0 0.00 0.13 0.00 74 1006.6
20260505080541 49 252 7.0 13.9 0.00 0.13 0.00 73 1006.8
20260505080048 49 219 7.0 15.6 0.00 0.13 0.00 74 1006.9
20260505075537 49 251 7.8 15.6 0.00 0.13 0.00 74 1007.0
20260505075038 49 244 7.8 12.2 0.00 0.13 0.00 75 1006.7
20260505074540 49 203 7.8 13.9 0.00 0.13 0.00 75 1006.7
20260505074039 49 182 5.2 17.4 0.00 0.13 0.00 75 1006.9
20260505073535 49 232 10.4 17.4 0.00 0.13 0.00 75 1007.0
20260505073043 49 254 8.7 17.4 0.00 0.13 0.00 76 1007.2
20260505072532 49 233 8.7 17.4 0.01 0.13 0.00 76 1006.9
20260505072031 49 254 7.8 16.5 0.01 0.13 0.00 76 1006.7
20260505071539 49 238 9.6 15.6 0.02 0.13 0.00 75 1006.7
20260505071030 49 253 10.4 15.6 0.02 0.13 0.00 75 1006.6
20260505070528 49 218 8.7 15.6 0.03 0.13 0.00 76 1006.5
20260505070029 49 246 8.7 15.6 0.03 0.13 0.00 76 1006.2
20260505065526 49 237 7.8 14.8 0.03 0.13 0.13 76 1006.4
20260505065025 50 233 6.1 13.9 0.03 0.13 0.13 76 1006.6
20260505064525 49 189 7.0 13.9 0.03 0.13 0.13 76 1006.7
20260505064024 49 221 5.2 8.7 0.03 0.13 0.13 76 1007.0
20260505063524 49 202 5.2 8.7 0.03 0.13 0.13 76 1007.0
20260505063033 49 202 5.2 10.4 0.03 0.13 0.13 76 1007.2
20260505062524 49 246 6.1 13.9 0.02 0.12 0.12 74 1007.1
20260505062030 50 211 5.2 13.9 0.02 0.12 0.12 73 1007.1
20260505061527 50 235 7.0 18.2 0.01 0.11 0.11 72 1006.7
20260505061024 51 254 9.6 18.2 0.01 0.11 0.11 70 1006.6
20260505060518 51 223 11.3 18.2 0.00 0.10 0.10 68 1006.3
20260505060018 51 195 10.4 18.2 0.00 0.10 0.10 67 1006.2
20260505055518 51 266 10.4 19.1 0.00 0.10 0.10 67 1006.0
20260505055020 51 196 10.4 19.1 0.00 0.10 0.10 68 1005.9
20260505054516 51 244 7.8 16.5 0.00 0.10 0.10 68 1005.8
20260505054017 51 246 7.8 16.5 0.00 0.10 0.10 67 1005.9
20260505053516 51 232 9.6 15.6 0.00 0.10 0.10 66 1006.0
20260505053016 52 271 7.8 13.9 0.00 0.10 0.10 65 1005.9
20260505052515 52 211 8.7 14.8 0.00 0.10 0.10 65 1005.9
20260505052015 52 252 8.7 14.8 0.00 0.10 0.10 65 1005.9
20260505051531 52 246 8.7 14.8 0.00 0.10 0.10 65 1005.8
20260505051016 52 230 8.7 16.5 0.00 0.10 0.10 65 1005.8